Regional Weather Roundup
Issued by NWS

Home | Current Version | Previous Version | Graphics & Text | Print | Product List | Glossary On
Versions: 1 2 3 4 5 6 7 8 9 10 11 12 13 14 15 16 17 18 19 20 21 22 23 24 25 26 27 28 29 30 31 32 33 34 35 36 37 38 39 40 41 42 43 44 45 46 47 48 49 50
000
ASUS43 KBIS 020720
RWRND

NORTH DAKOTA REGIONAL WEATHER ROUNDUP
NATIONAL WEATHER SERVICE BISMARCK ND
200 AM CDT THU OCT 02 2014

NOTE: "FAIR" INDICATES FEW OR NO CLOUDS BELOW 12,000 FEET WITH NO
SIGNIFICANT WEATHER AND/OR OBSTRUCTIONS TO VISIBILITY.


NDZ001>003-009>011-017-020800-
NORTHWEST NORTH DAKOTA

CITY           SKY/WX    TMP DP  RH WIND       PRES   REMARKS
WILLISTON      CLEAR     42  39  89 CALM      29.85F
MINOT          PTCLDY    48  43  82 SW9       29.81S
MINOT AFB      PTCLDY    47  46  96 W7        29.81R
$$

NDZ018>021-031>035-040>046-020800-
SOUTHWEST NORTH DAKOTA

CITY           SKY/WX    TMP DP  RH WIND       PRES   REMARKS
BISMARCK       MOCLDY    48  45  89 W6        29.88S
DICKINSON      CLEAR     42  39  89 W5        29.88S
GARRISON         N/A     46  43  89 W8        29.85R
HETTINGER ARPT CLEAR     39  37  92 NW6       29.93S
$$

NDZ004>008-012>016-024-026-027-054-020800-
NORTHEAST NORTH DAKOTA

CITY           SKY/WX    TMP DP  RH WIND       PRES   REMARKS
GRAND FORKS    PTCLDY    52  48  86 W7        29.78R
GRND FRKS AFB  CLEAR     51  50  97 W8        29.79R
DEVILS LAKE    CLEAR     50  43  76 W9        29.79R
$$

NDZ022-023-025-028>030-036>039-047>053-020800-
SOUTHEAST NORTH DAKOTA

CITY           SKY/WX    TMP DP  RH WIND       PRES   REMARKS
FARGO          CLEAR     54  48  80 SW8       29.82R
JAMESTOWN      PTCLDY    49  46  90 W8        29.83S
$$




USA.gov is the U.S. government's official web portal to all federal, state and local government web resources and services.